Simultaneous Nadir Overpasses (SNOs) Predictions

Prediction of SNOs between GOES-15 and TERRA Satellite Orbit:

Table of predicted SNOs for the next 14.0 days since TLE Epoch: 1/7/2017
Index Date Time (GOES-15) GOES-15 Lat,Lon TERRA Lat,Lon Distance(km) Time Diff (sec)
1 01/07/2017 07:30:49 0.01,-134.61 -0.01,-134.79 20.05 80
2 01/09/2017 07:15:57 0.02,-134.70 0.64,-131.83 326.46 80
3 01/09/2017 19:39:52 -0.01,-134.68 0.48,-136.98 262.44 80
4 01/11/2017 19:25:00 -0.01,-134.76 -0.18,-134.03 83.35 80
5 01/12/2017 07:49:04 -0.00,-134.83 -0.91,-139.22 498.71 80
6 01/13/2017 19:12:48 -0.01,-134.84 -0.84,-131.08 428.95 80
7 01/14/2017 07:36:51 -0.00,-134.92 -0.31,-136.26 153.19 80
8 01/16/2017 07:21:59 -0.00,-135.00 0.36,-133.31 192.22 80
9 01/16/2017 19:45:54 0.01,-134.97 0.76,-138.46 397.24 80
10 01/18/2017 19:33:42 0.01,-135.04 0.08,-135.51 52.30 80
11 01/20/2017 19:18:49 0.01,-135.11 -0.54,-132.54 292.34 80




NCC Satellite Simultaneous Nadir Overpasses (SNOs) Prediction Service
